Location: *
(23.2400°S, 124.9000°E)
Time: 10:59:24
(UTC+00:00)

Daily predictions for brighter satellites

Satellite Brightness Start Highest point End
(mag) Time Altitude Azimuth Time Altitude Azimuth Time Altitude Azimuth
Maqsat-H 4.5 12:01:00 10° NW 12:03:15 21° NNW 12:03:15 21° NNW
Okean O Rocket 4.0 19:41:29 10° NE 19:43:23 21° ENE 19:43:23 21° ENE
NOSS 3-2 (C) 4.4 19:49:55 53° S 19:49:55 53° S 19:55:48 10° SSE
Atlas 2A Centaur Rocket 4.1 19:52:47 27° ENE 19:52:47 27° ENE 19:56:37 10° E
SEDSat Delta rocket 4.4 20:07:32 40° SE 20:07:32 40° SE 20:11:30 10° E
CZ-3B R/B 4.1 20:03:36 32° NW 20:10:12 69° NNE 20:36:07 10° ESE
CZ-4C R/B 3.9 20:15:51 15° N 20:15:51 15° N 20:16:42 10° N
Timation 2 Rocket 4.5 20:13:23 29° S 20:16:46 62° ESE 20:23:25 10° NNE
USA 234 3.3 20:11:46 10° NE 20:18:15 74° SE 20:20:31 44° SSW
Skynet4D Del rocket 3.6 20:22:31 75° W 20:23:05 89° NNW 20:29:36 10° ENE
CENTAUR R/B 3.0 20:22:00 32° NW 20:26:09 62° WSW 20:33:40 10° SSE
Cosmos 158 Rocket 3.9 20:23:31 10° NNW 20:28:49 80° WSW 20:34:16 10° SSE
ATLAS 3B R/B 3.1 20:31:29 43° SW 20:31:29 43° SW 20:37:50 10° S
DASH 3.2 20:31:33 44° SSE 20:31:35 44° SSE 20:38:26 10° E
Meteor 2-5 Rocket 3.6 20:27:37 10° N 20:33:09 88° E 20:38:49 10° S
Meteor 1-16 Rocket 4.3 20:29:11 15° S 20:33:46 71° E 20:39:03 10° NNE
Cosmos 1727 Rocket 3.8 20:32:23 30° SSW 20:35:32 68° W 20:41:40 10° N
GPS 2-12 Rocket1 3.4 20:36:06 53° NNW 20:36:35 56° N 20:41:17 10° ENE
Cosmos 967 Rocket 4.5 20:33:23 28° SSW 20:36:56 79° ESE 20:43:11 10° NNE
Delta 2 Rocket 3.5 20:42:57 61° WSW 20:43:47 85° NNW 20:48:13 10° ENE
Cosmos 1602 Rocket 3.7 20:39:20 10° N 20:43:48 77° E 20:48:19 10° S
ISS -0.9 20:47:10 10° N 20:49:32 18° NE 20:51:55 10° E
Cosmos 1626 Rocket 3.4 20:45:12 10° NNW 20:49:38 68° W 20:54:05 10° S
Meteor 1-24 Rocket 3.5 20:45:30 10° N 20:50:47 88° E 20:56:15 10° S
CZ-3 R/B 3.7 20:38:03 27° W 20:51:38 50° NW 20:59:41 10° NNE
Cosmos 2228 4.4 20:56:47 22° NW 20:56:47 22° NW 20:58:50 10° NNW
Cosmos 1697 Rocket 4.3 20:50:40 10° N 20:55:48 37° ENE 21:00:59 10° SE
CZ-4B R/B 3.6 20:52:07 10° N 20:57:27 43° W 21:00:16 25° SW
Cosmos 1726 2.2 20:55:17 13° S 20:58:37 73° E 21:02:15 10° N
Cosmos 1821 Rocket 4.2 20:52:47 10° NNW 20:58:54 49° W 21:05:03 10° S
ALOS 2.2 20:54:56 10° N 20:59:34 71° WNW 21:04:06 11° SSW
Shenzhou-11 Module 4.0 21:04:36 15° NNW 21:04:36 15° NNW 21:05:44 10° N
SL-14 R/B 4.3 21:00:19 10° NNE 21:04:12 50° E 21:08:10 10° SSE
Orbus 7S 3.8 21:05:37 34° WSW 21:07:12 88° NNW 21:15:53 10° ENE
Cosmos 2056 Rocket 3.9 21:04:11 10° S 21:09:16 62° ESE 21:14:19 10° NNE
ATLAS 3B CENTAUR R/B 0.0 21:09:16 61° SSW 21:09:27 66° SSE 21:12:33 10° E
Cosmos 1656 3.6 21:09:30 10° NNW 21:15:05 72° WSW 21:20:40 10° SSE
Cosmos 2058 Rocket 3.9 21:15:14 24° WSW 21:16:17 27° W 21:19:58 10° NNW
Cosmos 1048 Rocket 4.3 21:12:53 10° N 21:17:57 69° ENE 21:23:08 10° SSE
IRS-1C Rocket 4.2 21:13:51 10° N 21:18:59 57° WNW 21:24:12 10° SSW
Cosmos 1238 4.4 21:17:06 10° S 21:20:21 73° W 21:24:15 10° N
Okean O Rocket 3.3 21:18:45 10° NW 21:20:50 16° WNW 21:20:50 16° WNW
Cosmos 389 Rocket 3.2 21:19:09 10° NW 21:22:25 32° W 21:25:42 10° SSW
Meteor 2-10 4.1 21:21:12 10° SSW 21:26:06 51° W 21:31:00 10° N
FENGYUN 3A 4.2 21:23:36 10° NNW 21:28:32 37° W 21:33:32 10° SSW
SKYMED 2 4.1 21:25:04 10° SSE 21:29:26 65° E 21:33:44 10° N
Cosmos 1953 Rocket 4.2 21:26:44 10° N 21:31:03 59° E 21:35:26 10° SSE
Cosmos 2227 Rocket 4.1 21:27:56 10° S 21:32:52 30° ESE 21:37:45 10° NE
Meteor 1-4 Rocket 3.5 21:30:19 10° NW 21:33:36 28° W 21:36:56 10° SSW
Cosmos 1624 Rocket 4.0 21:28:40 10° SSW 21:33:59 67° WNW 21:39:15 10° N
NOSS 3-3 (A) 3.8 21:30:29 10° SSW 21:36:32 74° WNW 21:42:11 10° NNE
NOSS 3-3 (C) 3.8 21:30:35 10° SSW 21:36:37 75° WNW 21:42:18 10° NNE
CORIOLIS 4.2 21:34:00 10° NNE 21:39:23 86° WNW 21:44:49 10° SSW
DELTA 2 R/B (1) 3.5 21:35:16 10° WNW 21:40:49 81° SW 21:46:26 10° SE
CZ-4 R/B 3.2 21:38:45 10° NE 21:42:11 31° ESE 21:45:40 10° SSE
Cosmos 1812 Rocket 3.7 21:39:58 10° SSW 21:44:19 55° W 21:48:40 10° N
Cosmos 1371 Rocket 4.5 21:40:05 10° SSW 21:45:01 40° W 21:49:51 10° N
Cosmos 2369 3.8 21:40:10 10° NNW 21:45:41 56° WSW 21:51:18 10° S
Cosmos 2123 Rocket 4.1 21:41:16 10° SSW 21:47:26 58° W 21:53:30 10° N
Cosmos 2360 4.5 21:45:03 10° NNW 21:50:43 77° ENE 21:56:27 10° SSE
Cosmos 2219 3.2 21:45:41 10° SSW 21:51:21 88° WNW 21:56:59 10° NNE
SEDSat Delta rocket 3.3 21:47:50 10° WSW 21:53:11 77° NNW 21:57:47 10° ENE
Cosmos 2297 Rocket 3.1 21:49:13 10° S 21:54:45 51° ESE 22:00:13 10° NE
IUS-9 SRM-1 0.9 21:54:33 10° W 21:56:03 53° NNW 21:58:06 10° ENE
Cosmos 1269 Rocket 4.3 21:50:58 10° N 21:56:14 79° ENE 22:01:35 10° SSE
Cosmos 1626 2.8 21:54:13 10° NNW 21:57:35 33° W 22:01:00 10° SSW
Cosmos 494 Rocket 4.0 21:56:22 10° NNW 22:01:29 90° NE 22:06:43 10° SSE
